Location: Veytaux
(46.4185°N, 6.9320°E)
Time: 08:44:01
(UTC+00:00)

Cosmos 2084 Rocket - Pass Details

Date: 27 May 2022
Orbit: 497 x 678 km, 62.8° (Epoch: 01 July)

Event Time Altitude Azimuth Distance (km) Brightness Sun altitude
Exits shadow 01:56:36 16° 263° (W) 1,368 5.0 -14.6°
Maximum altitude 01:59:04 32° 319° (NW) 880 4.5 -14.3°
Drops below altitude 10° 02:02:30 10° 25° (NNE) 1,707 7.2 -14.0°
Sets 02:04:51 0° 35° (NE) 2,601 8.8 -13.7°
